Weather History for Harlingen, TX

Change the Weather History Date:

Monday, April 22, 2013

  Actual Average Record
Temperature  
Mean Temperature 76 °F 77 °F  
Max Temperature 88 °F 87 °F 97 °F (1920)
Min Temperature 63 °F 67 °F 50 °F (1931)
Degree Days  
Heating Degree Days 0 0  
Month to date heating degree days 7 7  
Since 1 July heating degree days 398 621  
Cooling Degree Days 11 12  
Month to date cooling degree days 218 219  
Year to date cooling degree days 573 514  
Growing Degree Days 26 (Base 50)    
Moisture  
Dew Point 65 °F    
Average Humidity 70    
Maximum Humidity 93    
Minimum Humidity 46    
Precipitation  
Precipitation 0.00 in 0.05 in 1.30 in (1936)
Month to date precipitation T 1.25  
Year to date precipitation 2.80 5.01  
Sea Level Pressure  
Sea Level Pressure 30.00 in    
Wind  
Wind Speed 11 mph (ESE)    
Max Wind Speed 23 mph    
Max Gust Speed 26 mph    
Visibility 10 miles    
Events      
T = Trace of Precipitation, MM = Missing Value Source: NWS Daily Summary

Daily Weather History Graph

Daily Weather History Graph

Search for Another Location

Airport:

Trip Planner

Search our weather history database for the weather conditions in past years. The results will help you decide how hot, cold, wet, or windy it might be!

Date:

Astronomy

Apr. 22, 2013 Rise Set
Actual Time 7:00 AM CDT 7:57 PM CDT
Civil Twilight 6:36 AM CDT 8:21 PM CDT
Nautical Twilight 6:08 AM CDT 8:50 PM CDT
Astronomical Twilight 5:39 AM CDT 9:19 PM CDT
Moon 5:04 PM CDT (4/22) 4:36 AM CDT (4/22)
Length of Visible Light 13h 45m
Length of Day
12h 57m
Waxing Gibbous, 88% of the Moon is Illuminated
Apr 22
Waxing Gibbous
Apr 25
Full
May 2
Last Quarter
May 9
New
May 17
First Quarter

Hourly Weather History & Observations

Time (CDT) Temp. Heat Index Dew Point Humidity Pressure Visibility Wind Dir Wind Speed Gust Speed Precip Events Conditions
12:52 AM 66.9 °F - 63.0 °F 87% 30.06 in 10.0 mi East 6.9 mph - N/A   Clear
1:52 AM 66.0 °F - 63.0 °F 90% 30.04 in 10.0 mi East 3.5 mph - N/A   Clear
2:52 AM 64.9 °F - 62.1 °F 90% 30.02 in 10.0 mi ESE 5.8 mph - N/A   Partly Cloudy
3:52 AM 64.0 °F - 62.1 °F 93% 30.01 in 10.0 mi ESE 5.8 mph - N/A   Clear
4:52 AM 66.0 °F - 63.0 °F 90% 30.00 in 10.0 mi ESE 4.6 mph - N/A   Partly Cloudy
5:52 AM 64.9 °F - 63.0 °F 93% 30.00 in 10.0 mi East 3.5 mph - N/A   Partly Cloudy
6:52 AM 64.0 °F - 62.1 °F 93% 30.02 in 7.0 mi Calm Calm - N/A   Clear
7:52 AM 66.9 °F - 64.9 °F 93% 30.03 in 7.0 mi East 5.8 mph - N/A   Clear
8:50 AM 73.4 °F - 66.2 °F 78% 30.04 in 10.0 mi East 10.4 mph - N/A   Partly Cloudy
8:52 AM 73.0 °F - 66.9 °F 81% 30.04 in 10.0 mi East 9.2 mph - N/A   Partly Cloudy
9:15 AM 73.4 °F - 66.2 °F 78% 30.05 in 10.0 mi ESE 11.5 mph - N/A   Mostly Cloudy
9:49 AM 77.0 °F - 66.2 °F 69% 30.05 in 10.0 mi ESE 13.8 mph - N/A   Mostly Cloudy
9:52 AM 78.1 °F - 66.0 °F 66% 30.06 in 10.0 mi ESE 13.8 mph - N/A   Mostly Cloudy
10:52 AM 79.0 °F - 66.0 °F 64% 30.05 in 10.0 mi SE 12.7 mph 18.4 mph N/A   Overcast
11:04 AM 80.6 °F 82.7 °F 66.2 °F 61% 30.05 in 10.0 mi SE 12.7 mph - N/A   Mostly Cloudy
11:52 AM 82.9 °F 85.0 °F 66.0 °F 56% 30.04 in 10.0 mi SSE 11.5 mph 19.6 mph N/A   Mostly Cloudy
12:01 PM 82.4 °F 84.6 °F 66.2 °F 58% 30.03 in 10.0 mi ESE 15.0 mph 21.9 mph N/A   Mostly Cloudy
12:10 PM 84.2 °F 85.6 °F 64.4 °F 51% 30.03 in 10.0 mi SE 11.5 mph 21.9 mph N/A   Mostly Cloudy
12:52 PM 82.9 °F 84.6 °F 64.9 °F 54% 30.01 in 10.0 mi SE 8.1 mph - N/A   Overcast
1:52 PM 84.0 °F 86.3 °F 66.0 °F 55% 29.98 in 10.0 mi SE 16.1 mph 21.9 mph N/A   Mostly Cloudy
2:52 PM 82.9 °F 85.0 °F 66.0 °F 56% 29.96 in 10.0 mi SSE 12.7 mph - N/A   Overcast
3:52 PM 87.1 °F 88.3 °F 64.0 °F 46% 29.92 in 10.0 mi SSE 10.4 mph 19.6 mph N/A   Mostly Cloudy
4:52 PM 84.9 °F 86.6 °F 64.9 °F 51% 29.90 in 10.0 mi SE 15.0 mph - N/A   Mostly Cloudy
5:52 PM 82.9 °F 85.0 °F 66.0 °F 56% 29.90 in 10.0 mi SE 20.7 mph - N/A   Mostly Cloudy
6:52 PM 80.1 °F 81.7 °F 64.0 °F 58% 29.91 in 10.0 mi SE 20.7 mph - N/A   Mostly Cloudy
7:52 PM 75.9 °F - 66.9 °F 74% 29.91 in 10.0 mi ESE 17.3 mph - N/A   Clear
8:52 PM 73.9 °F - 66.9 °F 79% 29.94 in 10.0 mi SE 13.8 mph - N/A   Mostly Cloudy
9:52 PM 73.0 °F - 66.0 °F 79% 29.95 in 10.0 mi SE 18.4 mph - N/A   Scattered Clouds
10:52 PM 71.1 °F - 66.9 °F 87% 29.95 in 10.0 mi SE 12.7 mph - N/A   Clear
11:52 PM 71.1 °F - 66.9 °F 87% 29.94 in 10.0 mi SSE 12.7 mph - N/A   Scattered Clouds